,,���z��,���z��,����,����
DATE,TIME,�z��l(kWh),���ђl(kWh),�z��l(kWh),���ђl(kWh)
2016/4/1,0:30,0,0,4190,6100
2016/4/1,1:00,0,0,4280,6200
2016/4/1,1:30,0,0,4345,4600
2016/4/1,2:00,0,0,4415,4100
2016/4/1,2:30,0,0,4520,3000
2016/4/1,3:00,0,0,4730,4500
2016/4/1,3:30,0,0,5080,6600
2016/4/1,4:00,0,0,5470,9500
2016/4/1,4:30,0,0,5945,11300
2016/4/1,5:00,0,0,6380,13400
2016/4/1,5:30,0,0,6935,14500
2016/4/1,6:00,0,4,7430,15900
2016/4/1,6:30,359,6577,7825,19000
2016/4/1,7:00,10000,19762,8065,19300
2016/4/1,7:30,28879,35298,8320,17700
2016/4/1,8:00,46864,57055,8520,15200
2016/4/1,8:30,68251,81415,8745,13400
2016/4/1,9:00,85503,103635,8970,11100
2016/4/1,9:30,117593,129723,9205,10200
2016/4/1,10:00,134751,151712,9435,10500
2016/4/1,10:30,152895,165918,9720,11800
2016/4/1,11:00,165119,173017,10184,11300
2016/4/1,11:30,174447,180225,10709,12900
2016/4/1,12:00,180583,189123,11224,15200
2016/4/1,12:30,182241,168427,11719,15200
2016/4/1,13:00,181761,152853,12249,13700
2016/4/1,13:30,177814,133007,12849,12400
2016/4/1,14:00,170861,115207,13459,12700
2016/4/1,14:30,159006,98305,14084,11300
2016/4/1,15:00,146101,87657,14584,11900
2016/4/1,15:30,127587,76492,14719,10400
2016/4/1,16:00,110104,70654,14454,9800
2016/4/1,16:30,86623,47660,13984,9600
2016/4/1,17:00,66966,40746,13554,8700
2016/4/1,17:30,39469,17973,13309,8900
2016/4/1,18:00,21933,7794,12979,10000
2016/4/1,18:30,6111,608,12409,11800
2016/4/1,19:00,0,0,11759,13500
2016/4/1,19:30,0,0,11259,14300
2016/4/1,20:00,0,0,10749,14600
2016/4/1,20:30,0,0,10069,14500
2016/4/1,21:00,0,0,9140,14300
2016/4/1,21:30,0,0,8010,12300
2016/4/1,22:00,0,0,6960,10200
2016/4/1,22:30,0,0,5880,5000
2016/4/1,23:00,0,0,5065,2700
2016/4/1,23:30,0,0,4350,2900
2016/4/2,0:00,0,0,3905,4200
2016/4/2,0:30,0,0,3015,3800
2016/4/2,1:00,0,0,2125,4400
2016/4/2,1:30,0,0,1565,4600
2016/4/2,2:00,0,0,1405,4300
2016/4/2,2:30,0,0,1475,1400
2016/4/2,3:00,0,0,1645,200
2016/4/2,3:30,0,0,1745,0
2016/4/2,4:00,0,0,1745,0
2016/4/2,4:30,0,0,1685,0
2016/4/2,5:00,0,0,1605,0
2016/4/2,5:30,0,0,1565,0
2016/4/2,6:00,0,7,1530,0
2016/4/2,6:30,550,7089,1445,0
2016/4/2,7:00,11470,20292,1355,0
2016/4/2,7:30,30360,39268,1295,0
2016/4/2,8:00,49251,61889,1300,0
2016/4/2,8:30,71612,86089,1340,0
2016/4/2,9:00,90598,108563,1455,0
2016/4/2,9:30,117305,131266,1705,0
2016/4/2,10:00,134497,152239,1765,0
2016/4/2,10:30,152382,166329,1610,0
2016/4/2,11:00,162711,179615,1545,0
2016/4/2,11:30,166180,190685,1650,0
2016/4/2,12:00,163905,194474,1695,0
2016/4/2,12:30,161384,186144,1595,200
2016/4/2,13:00,152854,179380,1405,0
2016/4/2,13:30,134533,166761,1320,0
2016/4/2,14:00,119504,149629,1330,0
2016/4/2,14:30,104780,148479,1370,200
2016/4/2,15:00,92604,136779,1430,1500
2016/4/2,15:30,77250,105868,1520,900
2016/4/2,16:00,61608,91443,1640,1700
2016/4/2,16:30,45559,68345,1885,1600
2016/4/2,17:00,34766,44687,2390,500
2016/4/2,17:30,22786,20975,3070,200
2016/4/2,18:00,12944,7848,2890,100
2016/4/2,18:30,3969,809,3260,700
2016/4/2,19:00,23,300,3455,2500
2016/4/2,19:30,0,0,3860,3400
2016/4/2,20:00,0,0,4590,4600
2016/4/2,20:30,0,0,5515,6000
2016/4/2,21:00,0,0,6205,6700
2016/4/2,21:30,0,0,6545,7000
2016/4/2,22:00,0,0,6770,8200
2016/4/2,22:30,0,0,7315,8800
2016/4/2,23:00,0,0,8120,9800
2016/4/2,23:30,0,0,9015,10800
2016/4/3,0:00,0,0,10104,12000
2016/4/3,0:30,0,0,4190,12900
2016/4/3,1:00,0,0,4280,15900
2016/4/3,1:30,0,0,4345,18400
2016/4/3,2:00,0,0,4415,20800
2016/4/3,2:30,0,0,4520,21600
2016/4/3,3:00,0,0,4730,21200
2016/4/3,3:30,0,0,5080,18100
2016/4/3,4:00,0,0,5470,18200
2016/4/3,4:30,0,0,5945,18700
2016/4/3,5:00,0,0,6380,17200
2016/4/3,5:30,0,0,6935,16800
2016/4/3,6:00,0,3,7430,17100
2016/4/3,6:30,359,5797,7825,16600
2016/4/3,7:00,10000,14882,8065,16100
2016/4/3,7:30,28879,27312,8320,14100
2016/4/3,8:00,46864,37289,8520,12600
2016/4/3,8:30,68251,48899,8745,11600
2016/4/3,9:00,85503,66688,8970,10700
2016/4/3,9:30,117593,73227,9205,13800
2016/4/3,10:00,134751,73202,9435,12400
2016/4/3,10:30,152895,75371,9720,18400
2016/4/3,11:00,165119,82713,10184,16200
2016/4/3,11:30,174447,66820,10709,14500
2016/4/3,12:00,180583,79604,11224,10900
2016/4/3,12:30,182241,77517,11719,8100
2016/4/3,13:00,181761,65784,12249,7100
2016/4/3,13:30,177814,71109,12849,7100
2016/4/3,14:00,170861,80835,13459,6900
2016/4/3,14:30,159006,60033,14084,3900
2016/4/3,15:00,146101,42971,14584,3000
2016/4/3,15:30,127587,28012,14719,2200
2016/4/3,16:00,110104,14621,14454,2300
2016/4/3,16:30,86623,8975,13984,2300
2016/4/3,17:00,66966,8421,13554,5500
2016/4/3,17:30,39469,3154,13309,5500
2016/4/3,18:00,21933,1431,12979,3600
2016/4/3,18:30,6111,100,12409,3800
2016/4/3,19:00,0,0,11759,3700
2016/4/3,19:30,0,0,11259,3400
2016/4/3,20:00,0,0,10749,1100
2016/4/3,20:30,0,0,10069,900
2016/4/3,21:00,0,0,9140,2500
2016/4/3,21:30,0,0,8010,4700
2016/4/3,22:00,0,0,6960,5800
2016/4/3,22:30,0,0,5880,5000
2016/4/3,23:00,0,0,5065,2500
2016/4/3,23:30,0,0,4350,800
2016/4/4,0:00,0,0,3905,1100
2016/4/4,0:30,0,0,8755,600
2016/4/4,1:00,0,0,8575,2900
2016/4/4,1:30,0,0,8355,7300
2016/4/4,2:00,0,0,8445,13600
2016/4/4,2:30,0,0,9015,17600
2016/4/4,3:00,0,0,10055,20700
2016/4/4,3:30,0,0,11604,24500
2016/4/4,4:00,0,0,13314,28700
2016/4/4,4:30,0,0,15119,29900
2016/4/4,5:00,0,0,17039,32400
2016/4/4,5:30,0,0,19034,31900
2016/4/4,6:00,0,0,20834,29000
2016/4/4,6:30,178,702,21694,29300
2016/4/4,7:00,1059,2631,21829,29500
2016/4/4,7:30,2540,4297,21609,26100
2016/4/4,8:00,4158,8641,21319,26600
2016/4/4,8:30,6435,11225,21244,25900
2016/4/4,9:00,8484,19575,21199,22400
2016/4/4,9:30,9462,25746,20934,21000
2016/4/4,10:00,12124,23963,20424,16900
2016/4/4,10:30,15471,18623,19759,21800
2016/4/4,11:00,17853,22613,19124,18900
2016/4/4,11:30,21568,24591,18649,16400
2016/4/4,12:00,27310,28223,18144,14800
2016/4/4,12:30,33726,29479,17339,11200
2016/4/4,13:00,40389,25723,16249,6700
2016/4/4,13:30,41870,19012,15084,4200
2016/4/4,14:00,37959,22124,13969,3500
2016/4/4,14:30,31787,16899,13004,4000
2016/4/4,15:00,31869,15143,12214,4800
2016/4/4,15:30,31236,13369,11549,4900
2016/4/4,16:00,27100,14397,10939,5800
2016/4/4,16:30,21773,9980,10375,4900
2016/4/4,17:00,16752,6503,9875,5100
2016/4/4,17:30,10698,3426,9455,4600
2016/4/4,18:00,5835,2153,8945,5300
2016/4/4,18:30,1740,200,8330,5400
2016/4/4,19:00,58,0,7590,4900
2016/4/4,19:30,0,0,6845,3700
2016/4/4,20:00,0,0,6170,3700
2016/4/4,20:30,0,0,5590,3300
2016/4/4,21:00,0,0,5050,2900
2016/4/4,21:30,0,0,4575,2800
2016/4/4,22:00,0,0,4140,3200
2016/4/4,22:30,0,0,3780,3800
2016/4/4,23:00,0,0,3440,3300
2016/4/4,23:30,0,0,3065,3600
2016/4/5,0:00,0,0,2685,2700
2016/4/5,0:30,0,0,5335,2800
2016/4/5,1:00,0,0,4985,2700
2016/4/5,1:30,0,0,4615,3200
2016/4/5,2:00,0,0,4250,3200
2016/4/5,2:30,0,0,3890,2600
2016/4/5,3:00,0,0,3630,3200
2016/4/5,3:30,0,0,3420,2700
2016/4/5,4:00,0,0,3255,1800
2016/4/5,4:30,0,0,3155,1800
2016/4/5,5:00,0,0,3050,1900
2016/4/5,5:30,0,0,2940,2000
2016/4/5,6:00,0,0,2790,2000
2016/4/5,6:30,1017,3348,2605,2500
2016/4/5,7:00,10565,9989,2350,2400
2016/4/5,7:30,25522,18717,2165,2100
2016/4/5,8:00,41221,37363,2045,1400
2016/4/5,8:30,60055,57334,1895,800
2016/4/5,9:00,75932,65890,1705,200
2016/4/5,9:30,91015,100967,2190,0
2016/4/5,10:00,110136,129294,2425,200
2016/4/5,10:30,137172,130831,1270,600
2016/4/5,11:00,153871,147978,1280,2100
2016/4/5,11:30,166656,170382,1815,3000
2016/4/5,12:00,177937,169066,2530,3800
2016/4/5,12:30,181117,175810,3245,4700
2016/4/5,13:00,182015,184004,3770,5600
2016/4/5,13:30,179450,173142,4235,7800
2016/4/5,14:00,172571,177768,4620,7500
2016/4/5,14:30,160765,131824,5270,7600
2016/4/5,15:00,147897,148416,5880,8900
2016/4/5,15:30,129313,128456,6405,9200
2016/4/5,16:00,112229,103301,6800,9000
2016/4/5,16:30,89138,76626,7290,9200
2016/4/5,17:00,69591,56533,7860,8100
2016/4/5,17:30,39724,31021,8570,8400
2016/4/5,18:00,20314,11520,9220,8200
2016/4/5,18:30,6450,715,10034,10300
2016/4/5,19:00,113,300,11009,13100
2016/4/5,19:30,0,0,12269,17600
2016/4/5,20:00,0,0,13779,15500
2016/4/5,20:30,0,0,15339,16900
2016/4/5,21:00,0,0,16359,12300
2016/4/5,21:30,0,0,16749,9000
2016/4/5,22:00,0,0,16444,8600
2016/4/5,22:30,0,0,16294,10500
2016/4/5,23:00,0,0,16424,10000
2016/4/5,23:30,0,0,16374,8000
2016/4/6,0:00,0,0,15764,7300
2016/4/6,0:30,0,0,10174,6900
2016/4/6,1:00,0,0,9974,6100
2016/4/6,1:30,0,0,9770,6500
2016/4/6,2:00,0,0,9495,8100
2016/4/6,2:30,0,0,9225,9400
2016/4/6,3:00,0,0,8940,8200
2016/4/6,3:30,0,0,8475,6100
2016/4/6,4:00,0,0,7860,3800
2016/4/6,4:30,0,0,7245,2800
2016/4/6,5:00,0,0,6570,1900
2016/4/6,5:30,0,0,5925,2400
2016/4/6,6:00,0,15,5410,1500
2016/4/6,6:30,1213,8825,5015,1100
2016/4/6,7:00,12405,20729,4680,500
2016/4/6,7:30,28981,38009,4390,100
2016/4/6,8:00,43692,59321,4135,0
2016/4/6,8:30,61888,82926,4010,0
2016/4/6,9:00,76161,100590,4005,0
2016/4/6,9:30,94699,125586,4095,0
2016/4/6,10:00,107721,145401,4370,0
2016/4/6,10:30,122364,165212,4825,100
2016/4/6,11:00,132949,180727,5400,300
2016/4/6,11:30,140185,184936,5960,100
2016/4/6,12:00,150642,182560,6530,300
2016/4/6,12:30,158002,138329,6760,500
2016/4/6,13:00,161124,139160,6635,600
2016/4/6,13:30,159457,158344,6185,100
2016/4/6,14:00,153214,155548,5845,200
2016/4/6,14:30,141066,147211,5535,200
2016/4/6,15:00,126464,111964,5200,100
2016/4/6,15:30,104784,88418,4670,0
2016/4/6,16:00,93468,80884,4035,0
2016/4/6,16:30,75570,58855,3375,100
2016/4/6,17:00,57095,36999,3880,0
2016/4/6,17:30,34942,13555,4090,0
2016/4/6,18:00,18580,6703,3430,300
2016/4/6,18:30,6362,618,3125,3300
2016/4/6,19:00,113,300,3050,6900
2016/4/6,19:30,0,0,3010,9800
2016/4/6,20:00,0,0,2910,11600
2016/4/6,20:30,0,0,2230,12800
2016/4/6,21:00,0,0,1880,13600
2016/4/6,21:30,0,0,1940,13100
2016/4/6,22:00,0,0,2225,14400
2016/4/6,22:30,0,0,2685,13800
2016/4/6,23:00,0,0,3345,14900
2016/4/6,23:30,0,0,4345,13200
2016/4/7,0:00,0,0,5305,10300
2016/4/7,0:30,0,0,4025,9300
2016/4/7,1:00,0,0,4590,10600
2016/4/7,1:30,0,0,5320,12100
2016/4/7,2:00,0,0,6180,12500
2016/4/7,2:30,0,0,7255,13200
2016/4/7,3:00,0,0,8400,11800
2016/4/7,3:30,0,0,9130,9500
2016/4/7,4:00,0,0,9380,11100
2016/4/7,4:30,0,0,9365,11000
2016/4/7,5:00,0,0,9305,9800
2016/4/7,5:30,0,0,9415,5300
2016/4/7,6:00,0,0,9585,3300
2016/4/7,6:30,612,504,9590,3300
2016/4/7,7:00,3369,2362,9495,7600
2016/4/7,7:30,6275,3216,9410,14100
2016/4/7,8:00,8076,4609,9385,22500
2016/4/7,8:30,11377,5072,9470,27500
2016/4/7,9:00,11569,8300,9695,28800
2016/4/7,9:30,12638,11816,10109,28300
2016/4/7,10:00,14089,14109,10724,28500
2016/4/7,10:30,17118,19344,11539,30300
2016/4/7,11:00,22435,19163,12434,23500
2016/4/7,11:30,29590,18705,13399,21800
2016/4/7,12:00,36480,20536,15084,16500
2016/4/7,12:30,40313,19158,19184,8400
2016/4/7,13:00,41932,22736,27629,5300
2016/4/7,13:30,39218,20581,38843,3200
2016/4/7,14:00,38818,16199,46558,5100
2016/4/7,14:30,37047,11274,48798,9900
2016/4/7,15:00,30372,6962,48948,28200
2016/4/7,15:30,21737,3840,49187,41700
2016/4/7,16:00,16150,3407,49722,40300
2016/4/7,16:30,11911,1761,50332,37600
2016/4/7,17:00,9106,2119,50812,37600
2016/4/7,17:30,5207,900,51057,41900
2016/4/7,18:00,2737,700,51092,32000
2016/4/7,18:30,720,100,51077,19200
2016/4/7,19:00,0,400,50882,13000
2016/4/7,19:30,0,0,50182,14500
2016/4/7,20:00,0,0,48978,11400
2016/4/7,20:30,0,0,48043,9900
2016/4/7,21:00,0,0,47468,7800
2016/4/7,21:30,0,0,46753,3500
2016/4/7,22:00,0,0,45388,1600
2016/4/7,22:30,0,0,42808,1200
2016/4/7,23:00,0,0,38683,700
2016/4/7,23:30,0,0,33838,1300
2016/4/8,0:00,0,0,28994,800
2016/4/8,0:30,0,0,8375,1500
2016/4/8,1:00,0,0,8020,300
2016/4/8,1:30,0,0,7745,2300
2016/4/8,2:00,0,0,7450,3000
2016/4/8,2:30,0,0,7305,1200
2016/4/8,3:00,0,0,7060,1400
2016/4/8,3:30,0,0,7005,2200
2016/4/8,4:00,0,0,7050,2300
2016/4/8,4:30,0,0,7245,2300
2016/4/8,5:00,0,0,7630,2200
2016/4/8,5:30,0,0,8090,900
2016/4/8,6:00,0,7,8640,100
2016/4/8,6:30,914,4687,9580,200
2016/4/8,7:00,4227,9401,10824,700
2016/4/8,7:30,8317,17200,12379,800
2016/4/8,8:00,10896,32512,14259,200
2016/4/8,8:30,14325,45676,16369,0
2016/4/8,9:00,19368,50623,18094,0
2016/4/8,9:30,31171,72948,18959,100
2016/4/8,10:00,43071,89887,19364,1000
2016/4/8,10:30,53216,110593,20059,2200
2016/4/8,11:00,59232,120427,21604,4900
2016/4/8,11:30,65105,107044,23684,5500
2016/4/8,12:00,69571,106301,25349,4500
2016/4/8,12:30,74256,108385,25364,4300
2016/4/8,13:00,75512,88512,23744,5700
2016/4/8,13:30,76475,63658,21619,9800
2016/4/8,14:00,72363,71331,19919,10700
2016/4/8,14:30,73461,69415,18984,13800
2016/4/8,15:00,89795,65883,18839,15100
2016/4/8,15:30,93777,76147,18869,17500
2016/4/8,16:00,90340,84193,18909,13700
2016/4/8,16:30,76150,65041,19124,9700
2016/4/8,17:00,60262,48529,19534,11300
2016/4/8,17:30,40797,26392,20059,12000
2016/4/8,18:00,24429,11525,20594,13600
2016/4/8,18:30,8516,1233,20944,17400
2016/4/8,19:00,223,300,21429,19400
2016/4/8,19:30,0,0,22389,23900
2016/4/8,20:00,0,0,23549,25400
2016/4/8,20:30,0,0,24539,25800
2016/4/8,21:00,0,0,24919,26800
2016/4/8,21:30,0,0,24259,28500
2016/4/8,22:00,0,0,22784,30400
2016/4/8,22:30,0,0,20959,31800
2016/4/8,23:00,0,0,19219,32600
2016/4/8,23:30,0,0,17519,30600
2016/4/9,0:00,0,0,15969,30500
2016/4/9,0:30,0,0,12674,33000
2016/4/9,1:00,0,0,14219,33700
2016/4/9,1:30,0,0,16324,34100
2016/4/9,2:00,0,0,18529,34300
2016/4/9,2:30,0,0,20844,34500
2016/4/9,3:00,0,0,23074,34800
2016/4/9,3:30,0,0,25079,34900
2016/4/9,4:00,0,0,26939,36400
2016/4/9,4:30,0,0,28749,34600
2016/4/9,5:00,0,0,30573,34500
2016/4/9,5:30,0,0,32433,32900
2016/4/9,6:00,0,26,33913,34500
2016/4/9,6:30,2072,11377,34753,34200
2016/4/9,7:00,15741,25395,34858,30500
2016/4/9,7:30,33942,40150,34668,26100
2016/4/9,8:00,51358,61208,34498,24100
2016/4/9,8:30,72134,84791,34573,19500
2016/4/9,9:00,88147,104392,34618,17000
2016/4/9,9:30,111678,126350,34003,16700
2016/4/9,10:00,126214,150394,32703,15000
2016/4/9,10:30,140740,167990,31053,17000
2016/4/9,11:00,153122,181801,29523,20400
2016/4/9,11:30,165829,175513,28474,20500
2016/4/9,12:00,173811,193550,27474,21200
2016/4/9,12:30,165369,195206,25959,19000
2016/4/9,13:00,158641,193238,23809,19100
2016/4/9,13:30,161862,189513,21339,18000
2016/4/9,14:00,158532,179966,18924,17200
2016/4/9,14:30,135278,160894,16899,17200
2016/4/9,15:00,116721,144036,15094,15100
2016/4/9,15:30,93737,119807,13449,12000
2016/4/9,16:00,77674,96761,11759,7200
2016/4/9,16:30,59013,65968,10049,7200
2016/4/9,17:00,45930,46877,8380,7800
2016/4/9,17:30,31671,24933,6795,8200
2016/4/9,18:00,19716,8300,5625,8500
2016/4/9,18:30,7449,1443,5280,10000
2016/4/9,19:00,289,400,5380,12800
2016/4/9,19:30,0,0,5615,19200
2016/4/9,20:00,0,0,5845,21700
2016/4/9,20:30,0,0,6070,24500
2016/4/9,21:00,0,0,6305,25900
2016/4/9,21:30,0,0,6560,26300
2016/4/9,22:00,0,0,6905,28200
2016/4/9,22:30,0,0,7445,30100
2016/4/9,23:00,0,0,8000,30600
2016/4/9,23:30,0,0,8505,33700
2016/4/10,0:00,0,0,8750,37700
2016/4/10,0:30,0,0,4820,37700
2016/4/10,1:00,0,0,4640,38400
2016/4/10,1:30,0,0,4420,39800
2016/4/10,2:00,0,0,4275,37500
2016/4/10,2:30,0,0,4255,36800
2016/4/10,3:00,0,0,4240,38400
2016/4/10,3:30,0,0,3965,40100
2016/4/10,4:00,0,0,3445,40600
2016/4/10,4:30,0,0,2905,37800
2016/4/10,5:00,0,0,2500,35400
2016/4/10,5:30,0,0,2335,31500
2016/4/10,6:00,0,24,2220,29000
2016/4/10,6:30,2430,9971,2110,28200
2016/4/10,7:00,13640,20369,1940,27600
2016/4/10,7:30,26360,33819,1725,21900
2016/4/10,8:00,39107,48049,1650,15700
2016/4/10,8:30,51842,64264,1645,9600
2016/4/10,9:00,57817,78355,1870,5900
2016/4/10,9:30,69020,88872,2015,5600
2016/4/10,10:00,76457,95906,1785,5700
2016/4/10,10:30,84707,106003,2075,3900
2016/4/10,11:00,90238,113160,2430,3100
2016/4/10,11:30,92225,110341,2595,4700
2016/4/10,12:00,93211,105975,2780,6100
2016/4/10,12:30,91389,97485,2970,8900
2016/4/10,13:00,93825,93260,3075,10400
2016/4/10,13:30,90818,82682,3075,10800
2016/4/10,14:00,86631,75419,3325,9900
2016/4/10,14:30,78595,66064,3830,10700
2016/4/10,15:00,70333,64527,4485,6000
2016/4/10,15:30,60665,54390,5030,5500
2016/4/10,16:00,52625,50680,5430,9800
2016/4/10,16:30,41751,37542,5640,12200
2016/4/10,17:00,32503,28777,6035,13000
2016/4/10,17:30,21395,11917,7010,13700
2016/4/10,18:00,12553,6826,8210,14700
2016/4/10,18:30,4423,1027,9070,14400
2016/4/10,19:00,277,400,9585,13200
2016/4/10,19:30,0,0,10169,12200
2016/4/10,20:00,0,0,10944,11600
2016/4/10,20:30,0,0,11699,12800
2016/4/10,21:00,0,0,12214,14300
2016/4/10,21:30,0,0,12244,12400
2016/4/10,22:00,0,0,12034,10300
2016/4/10,22:30,0,0,11944,8500
2016/4/10,23:00,0,0,12179,10300
2016/4/10,23:30,0,0,12399,17800
2016/4/11,0:00,0,0,12289,22400
2016/4/11,0:30,0,0,16984,23300
2016/4/11,1:00,0,0,15239,26400
2016/4/11,1:30,0,0,13039,27700
2016/4/11,2:00,0,0,10969,26900
2016/4/11,2:30,0,0,9470,12400
2016/4/11,3:00,0,0,8550,9500
2016/4/11,3:30,0,0,8140,7200
2016/4/11,4:00,0,0,8010,4900
2016/4/11,4:30,0,0,8130,4200
2016/4/11,5:00,0,0,8310,3800
2016/4/11,5:30,0,0,8345,6500
2016/4/11,6:00,0,0,8270,6400
2016/4/11,6:30,2792,2035,8195,3000
2016/4/11,7:00,14667,6660,8170,7000
2016/4/11,7:30,31690,11135,8180,10100
2016/4/11,8:00,49121,21372,8215,12700
2016/4/11,8:30,69923,37884,8265,11900
2016/4/11,9:00,80751,64030,8375,13800
2016/4/11,9:30,106803,80815,8595,12300
2016/4/11,10:00,135128,103640,8950,10600
2016/4/11,10:30,153398,109632,9405,8300
2016/4/11,11:00,164833,131685,9899,8400
2016/4/11,11:30,170236,128767,10404,8000
2016/4/11,12:00,175301,136202,10814,9300
2016/4/11,12:30,176007,136472,11109,10500
2016/4/11,13:00,174644,159996,11284,12100
2016/4/11,13:30,170228,163084,11359,13700
2016/4/11,14:00,161038,142235,11359,14700
2016/4/11,14:30,150250,117229,11289,14800
2016/4/11,15:00,138950,101787,11084,13700
2016/4/11,15:30,121926,64395,10649,10500
2016/4/11,16:00,106116,44543,9994,11000
2016/4/11,16:30,81424,42484,9230,10900
2016/4/11,17:00,62787,27228,8490,9000
2016/4/11,17:30,39747,10109,7900,8800
2016/4/11,18:00,23021,5809,7350,7700
2016/4/11,18:30,8623,615,6655,9000
2016/4/11,19:00,351,200,5795,8600
2016/4/11,19:30,0,0,5080,6400
2016/4/11,20:00,0,0,4545,8700
2016/4/11,20:30,0,0,4060,10200
2016/4/11,21:00,0,0,3585,9200
2016/4/11,21:30,0,0,3030,6100
2016/4/11,22:00,0,0,2465,4800
2016/4/11,22:30,0,0,2065,2700
2016/4/11,23:00,0,0,1785,2400
2016/4/11,23:30,0,0,1695,1700
2016/4/12,0:00,0,0,1810,1500
2016/4/12,0:30,0,0,2235,700
2016/4/12,1:00,0,0,2070,700
2016/4/12,1:30,0,0,2105,600
2016/4/12,2:00,0,0,2255,300
2016/4/12,2:30,0,0,2390,200
2016/4/12,3:00,0,0,2420,0
2016/4/12,3:30,0,0,2285,300
2016/4/12,4:00,0,0,2290,300
2016/4/12,4:30,0,0,2995,400
2016/4/12,5:00,0,0,3700,700
2016/4/12,5:30,0,0,3335,1100
2016/4/12,6:00,0,31,3090,1100
2016/4/12,6:30,3183,12013,2945,1100
2016/4/12,7:00,18313,27168,2705,900
2016/4/12,7:30,39010,45528,2400,100
2016/4/12,8:00,58423,69474,2190,0
2016/4/12,8:30,81873,94003,2200,200
2016/4/12,9:00,100471,115482,2140,400
2016/4/12,9:30,126721,138122,2030,500
2016/4/12,10:00,143185,157550,2530,500
2016/4/12,10:30,161025,172983,3210,1700
2016/4/12,11:00,172674,187175,3660,1600
2016/4/12,11:30,181510,194289,3880,1500
2016/4/12,12:00,187142,199727,3790,1900
2016/4/12,12:30,188345,199051,3220,1700
2016/4/12,13:00,187641,196639,2400,2000
2016/4/12,13:30,183922,182938,2400,1200
2016/4/12,14:00,176770,168767,2620,1100
2016/4/12,14:30,164703,137700,2735,1800
2016/4/12,15:00,149983,115381,2755,1300
2016/4/12,15:30,126439,82546,2735,700
2016/4/12,16:00,103432,65278,2625,600
2016/4/12,16:30,76594,50324,2420,700
2016/4/12,17:00,57159,42236,3425,1300
2016/4/12,17:30,37043,22071,4435,3200
2016/4/12,18:00,21517,10101,5705,6400
2016/4/12,18:30,7768,1563,6720,7800
2016/4/12,19:00,491,400,7360,8100
2016/4/12,19:30,0,0,8095,10300
2016/4/12,20:00,0,0,8765,11200
2016/4/12,20:30,0,0,9415,9700
2016/4/12,21:00,0,0,9809,9700
2016/4/12,21:30,0,0,9849,12000
2016/4/12,22:00,0,0,9755,12900
2016/4/12,22:30,0,0,9914,14000
2016/4/12,23:00,0,0,10574,14100
2016/4/12,23:30,0,0,11644,14900
2016/4/13,0:00,0,0,12784,13400
2016/4/13,0:30,0,0,10114,11500
2016/4/13,1:00,0,0,10519,12100
2016/4/13,1:30,0,0,10929,11400
2016/4/13,2:00,0,0,11359,9000
2016/4/13,2:30,0,0,11894,8600
2016/4/13,3:00,0,0,12354,9200
2016/4/13,3:30,0,0,12334,7600
2016/4/13,4:00,0,0,11864,7500
2016/4/13,4:30,0,0,11279,10100
2016/4/13,5:00,0,0,10774,9400
2016/4/13,5:30,0,0,10454,8500
2016/4/13,6:00,0,22,10344,7300
2016/4/13,6:30,3601,12533,10344,6600
2016/4/13,7:00,15697,24891,10259,5100
2016/4/13,7:30,30411,32838,10334,4100
2016/4/13,8:00,45001,47677,10399,4700
2016/4/13,8:30,62362,61678,10479,3200
2016/4/13,9:00,73140,78475,10634,2700
2016/4/13,9:30,86116,93209,11114,1600
2016/4/13,10:00,95523,100042,11999,800
2016/4/13,10:30,104131,134942,13304,700
2016/4/13,11:00,99898,154334,14944,500
2016/4/13,11:30,95304,170862,16544,100
2016/4/13,12:00,92745,157857,17849,100
2016/4/13,12:30,89648,141022,18179,0
2016/4/13,13:00,85718,122504,17944,0
2016/4/13,13:30,78984,107817,17344,400
2016/4/13,14:00,73158,94023,16684,400
2016/4/13,14:30,67446,89992,16294,700
2016/4/13,15:00,63746,63976,16059,2100
2016/4/13,15:30,55417,37194,15844,4700
2016/4/13,16:00,44165,26552,15364,4800
2016/4/13,16:30,31270,12215,14894,4900
2016/4/13,17:00,22318,7583,14734,6500
2016/4/13,17:30,13615,3214,14584,9700
2016/4/13,18:00,7613,1711,14364,8200
2016/4/13,18:30,2780,100,13609,4000
2016/4/13,19:00,176,400,12474,1800
2016/4/13,19:30,0,0,11189,2100
2016/4/13,20:00,0,0,10134,2700
2016/4/13,20:30,0,0,9295,2000
2016/4/13,21:00,0,0,8730,2300
2016/4/13,21:30,0,0,8430,1700
2016/4/13,22:00,0,0,8315,500
2016/4/13,22:30,0,0,8335,500
2016/4/13,23:00,0,0,8480,3700
2016/4/13,23:30,0,0,8610,8200
2016/4/14,0:00,0,0,8585,11400
2016/4/14,0:30,0,0,15934,12600
2016/4/14,1:00,0,0,15524,10400
2016/4/14,1:30,0,0,14899,11400
2016/4/14,2:00,0,0,14349,13700
2016/4/14,2:30,0,0,14364,12100
2016/4/14,3:00,0,0,14574,9700
2016/4/14,3:30,0,0,14449,9000
2016/4/14,4:00,0,0,13934,8700
2016/4/14,4:30,0,0,13234,9500
2016/4/14,5:00,0,0,12619,9500
2016/4/14,5:30,0,0,12169,10700
2016/4/14,6:00,0,21,11654,8900
2016/4/14,6:30,835,8234,10524,6200
2016/4/14,7:00,3142,19498,8905,5400
2016/4/14,7:30,7239,32375,7440,4700
2016/4/14,8:00,13499,50044,6315,3100
2016/4/14,8:30,21580,66718,5760,2100
2016/4/14,9:00,29255,94292,5340,1100
2016/4/14,9:30,33415,115311,5105,800
2016/4/14,10:00,27824,135153,5035,300
2016/4/14,10:30,31519,145278,5045,400
2016/4/14,11:00,37370,143682,5050,200
2016/4/14,11:30,55307,165476,4995,0
2016/4/14,12:00,59998,174897,4875,300
2016/4/14,12:30,62364,158517,4810,500
2016/4/14,13:00,64232,186759,4850,900
2016/4/14,13:30,63909,159376,4940,800
2016/4/14,14:00,64146,154219,5230,700
2016/4/14,14:30,62311,149713,5730,1000
2016/4/14,15:00,59001,131475,6240,4300
2016/4/14,15:30,53271,105548,6470,6000
2016/4/14,16:00,47464,82257,6355,9400
2016/4/14,16:30,37714,35848,6150,11400
2016/4/14,17:00,27253,31835,6035,6700
2016/4/14,17:30,17281,18078,6190,8900
2016/4/14,18:00,10310,3948,6490,10600
2016/4/14,18:30,4028,505,6840,7300
2016/4/14,19:00,340,400,7135,7000
2016/4/14,19:30,0,0,7565,9500
2016/4/14,20:00,0,0,8145,17200
2016/4/14,20:30,0,0,8755,17100
2016/4/14,21:00,0,0,9320,10100
2016/4/14,21:30,0,0,9899,18800
2016/4/14,22:00,0,0,10469,21200
2016/4/14,22:30,0,0,11444,15600
2016/4/14,23:00,0,0,12659,8200
2016/4/14,23:30,0,0,13834,5100
2016/4/15,0:00,0,0,14474,3900
2016/4/15,0:30,0,0,13639,5200
2016/4/15,1:00,0,0,13634,7000
2016/4/15,1:30,0,0,13599,8600
2016/4/15,2:00,0,0,13769,10700
2016/4/15,2:30,0,0,13914,17300
2016/4/15,3:00,0,0,14269,23700
2016/4/15,3:30,0,0,14964,34100
2016/4/15,4:00,0,0,16069,38700
2016/4/15,4:30,0,0,17174,41600
2016/4/15,5:00,0,0,18444,38700
2016/4/15,5:30,0,0,19469,33000
2016/4/15,6:00,0,21,19849,25700
2016/4/15,6:30,2236,8950,18634,19900
2016/4/15,7:00,9279,19397,16114,15900
2016/4/15,7:30,20099,37181,13074,15600